Total_Precipitation_Accumulation
0.36 0.42 0.33 0.25 0.21 0.18 0.16 0.17 0.15 0.12 0.11 0.11 0.09 0.06 0.02 0.03 0.04 0.03 0.02 0.03 0.02 0.01 0.01 0.01 0.02 0.02 0.03 0.06 0.09 0.10 0.11 0.17 0.19 0.19 0.24 0.28 0.26 0.26 0.28 0.27 0.25 0.26 0.27 0.28
0.36 0.30 0.15 0.12 0.15 0.19 0.21 0.19 0.15 0.12 0.10 0.12 0.10 0.06 0.03 0.03 0.03 0.03 0.03 0.02 0.02 0.01 0.01 0.02 0.03 0.04 0.03 0.04 0.07 0.10 0.10 0.13 0.19 0.19 0.19 0.23 0.23 0.24 0.27 0.27 0.27 0.28 0.27 0.27
0.30 0.17 0.12 0.14 0.19 0.23 0.25 0.22 0.16 0.16 0.14 0.13 0.12 0.09 0.03 0.02 0.03 0.03 0.02 0.02 0.02 0.01 0.02 0.03 0.04 0.05 0.05 0.05 0.06 0.09 0.10 0.11 0.16 0.22 0.23 0.26 0.30 0.28 0.30 0.29 0.28 0.28 0.27 0.27
0.26 0.14 0.15 0.19 0.19 0.19 0.21 0.15 0.15 0.19 0.27 0.26 0.19 0.17 0.05 0.03 0.03 0.03 0.02 0.02 0.01 0.01 0.01 0.02 0.03 0.04 0.06 0.07 0.08 0.10 0.13 0.12 0.12 0.18 0.26 0.29 0.31 0.28 0.24 0.23 0.24 0.26 0.27 0.27
0.29 0.14 0.16 0.18 0.12 0.13 0.15 0.13 0.18 0.22 0.32 0.31 0.20 0.21 0.07 0.03 0.04 0.03 0.01 0.01 0.01 0.01 0.01 0.02 0.01 0.02 0.04 0.06 0.08 0.09 0.14 0.15 0.13 0.13 0.18 0.25 0.29 0.29 0.29 0.28 0.27 0.28 0.29 0.28
0.21 0.14 0.16 0.15 0.10 0.12 0.18 0.24 0.31 0.34 0.46 0.48 0.17 0.14 0.08 0.04 0.04 0.02 0.01 0.01 0.01 0.02 0.02 0.03 0.03 0.03 0.03 0.04 0.06 0.09 0.12 0.15 0.15 0.16 0.17 0.22 0.27 0.30 0.33 0.35 0.33 0.30 0.30 0.30
0.27 0.17 0.14 0.14 0.20 0.21 0.31 0.51 0.72 0.72 0.66 0.38 0.08 0.09 0.07 0.04 0.03 0.02 0.01 0.01 0.01 0.02 0.03 0.03 0.03 0.05 0.05 0.04 0.05 0.08 0.11 0.14 0.15 0.16 0.19 0.20 0.24 0.27 0.30 0.35 0.34 0.32 0.31 0.32
0.33 0.22 0.12 0.11 0.17 0.24 0.27 0.40 0.59 0.57 0.34 0.13 0.05 0.06 0.05 0.04 0.03 0.01 0.01 0.01 0.02 0.02 0.03 0.03 0.03 0.03 0.03 0.04 0.04 0.06 0.08 0.11 0.15 0.17 0.19 0.20 0.23 0.24 0.24 0.29 0.34 0.34 0.32 0.32
0.36 0.22 0.08 0.06 0.08 0.17 0.29 0.28 0.26 0.42 0.33 0.21 0.12 0.07 0.05 0.03 0.02 0.01 0.01 0.02 0.03 0.03 0.03 0.03 0.03 0.02 0.03 0.03 0.04 0.06 0.07 0.09 0.11 0.15 0.19 0.21 0.22 0.23 0.22 0.23 0.29 0.33 0.32 0.30
0.42 0.33 0.13 0.09 0.13 0.17 0.21 0.29 0.39 0.60 0.58 0.32 0.12 0.07 0.07 0.04 0.03 0.02 0.03 0.03 0.04 0.04 0.04 0.04 0.03 0.03 0.03 0.04 0.04 0.06 0.09 0.09 0.10 0.12 0.17 0.21 0.22 0.23 0.23 0.23 0.25 0.30 0.33 0.34
0.41 0.47 0.26 0.18 0.21 0.19 0.19 0.29 0.49 0.61 0.50 0.36 0.19 0.10 0.09 0.07 0.04 0.03 0.03 0.04 0.06 0.06 0.07 0.06 0.04 0.03 0.04 0.05 0.06 0.07 0.10 0.11 0.13 0.13 0.15 0.19 0.24 0.26 0.28 0.30 0.30 0.31 0.35 0.40
0.40 0.57 0.41 0.20 0.14 0.14 0.21 0.24 0.34 0.55 0.48 0.30 0.24 0.11 0.06 0.06 0.05 0.04 0.03 0.04 0.05 0.07 0.09 0.08 0.06 0.05 0.06 0.07 0.08 0.10 0.13 0.13 0.15 0.15 0.17 0.18 0.24 0.30 0.34 0.37 0.38 0.40 0.42 0.44
0.61 0.83 0.69 0.41 0.29 0.25 0.28 0.27 0.29 0.41 0.50 0.39 0.32 0.13 0.03 0.04 0.05 0.04 0.04 0.04 0.05 0.07 0.07 0.07 0.07 0.07 0.08 0.09 0.10 0.14 0.17 0.15 0.16 0.16 0.18 0.21 0.25 0.32 0.40 0.44 0.47 0.47 0.48 0.52
0.83 0.93 0.70 0.49 0.31 0.29 0.29 0.25 0.26 0.43 0.61 0.40 0.19 0.08 0.03 0.03 0.05 0.05 0.04 0.04 0.04 0.04 0.05 0.07 0.07 0.08 0.09 0.10 0.11 0.14 0.18 0.17 0.20 0.23 0.24 0.29 0.35 0.40 0.45 0.50 0.51 0.51 0.53 0.55
0.88 0.89 0.48 0.26 0.15 0.15 0.19 0.17 0.18 0.25 0.28 0.27 0.13 0.07 0.05 0.05 0.05 0.07 0.06 0.04 0.04 0.04 0.06 0.08 0.08 0.07 0.09 0.10 0.11 0.15 0.21 0.24 0.30 0.37 0.39 0.38 0.38 0.43 0.43 0.46 0.49 0.51 0.55 0.57
0.81 0.81 0.48 0.31 0.17 0.17 0.18 0.13 0.11 0.12 0.11 0.10 0.08 0.07 0.05 0.04 0.03 0.04 0.04 0.05 0.05 0.05 0.07 0.07 0.08 0.08 0.09 0.12 0.17 0.24 0.30 0.35 0.39 0.44 0.47 0.45 0.40 0.40 0.45 0.45 0.46 0.50 0.53 0.53
0.77 0.80 0.74 0.45 0.21 0.32 0.33 0.13 0.08 0.08 0.07 0.07 0.08 0.07 0.05 0.04 0.03 0.03 0.04 0.05 0.06 0.06 0.07 0.09 0.11 0.13 0.15 0.19 0.25 0.32 0.36 0.38 0.40 0.44 0.49 0.51 0.45 0.40 0.43 0.44 0.44 0.43 0.44 0.45
0.57 0.66 0.92 0.69 0.47 0.59 0.23 0.06 0.05 0.07 0.07 0.07 0.06 0.06 0.05 0.04 0.04 0.03 0.04 0.06 0.08 0.10 0.12 0.14 0.16 0.18 0.21 0.25 0.30 0.34 0.37 0.40 0.40 0.41 0.41 0.43 0.39 0.33 0.36 0.40 0.39 0.36 0.36 0.40
0.30 0.54 0.96 0.90 0.68 0.35 0.08 0.04 0.05 0.08 0.10 0.08 0.07 0.06 0.05 0.05 0.05 0.06 0.07 0.08 0.09 0.10 0.10 0.11 0.12 0.15 0.19 0.24 0.27 0.28 0.29 0.31 0.31 0.30 0.28 0.30 0.27 0.27 0.32 0.36 0.33 0.31 0.31 0.32
0.26 0.49 1.00 1.00 0.79 0.35 0.08 0.03 0.04 0.09 0.12 0.09 0.08 0.07 0.07 0.11 0.24 0.14 0.12 0.09 0.07 0.06 0.06 0.06 0.07 0.08 0.11 0.15 0.17 0.18 0.18 0.20 0.21 0.21 0.21 0.26 0.25 0.23 0.27 0.32 0.31 0.30 0.29 0.32
0.42 0.72 0.94 0.82 0.71 0.27 0.06 0.03 0.06 0.17 0.18 0.13 0.11 0.11 0.15 0.22 0.28 0.17 0.11 0.09 0.08 0.06 0.05 0.05 0.05 0.08 0.11 0.14 0.15 0.14 0.13 0.13 0.14 0.16 0.18 0.25 0.27 0.25 0.24 0.27 0.30 0.30 0.31 0.33
0.37 0.54 0.58 0.59 0.74 0.33 0.06 0.07 0.13 0.18 0.14 0.12 0.14 0.16 0.21 0.16 0.09 0.07 0.08 0.09 0.07 0.05 0.05 0.05 0.07 0.10 0.15 0.17 0.14 0.10 0.09 0.09 0.10 0.14 0.17 0.22 0.30 0.27 0.26 0.27 0.27 0.28 0.32 0.35
0.28 0.36 0.40 0.40 0.32 0.12 0.08 0.10 0.11 0.12 0.14 0.17 0.25 0.26 0.24 0.20 0.13 0.11 0.10 0.08 0.06 0.06 0.07 0.08 0.09 0.14 0.17 0.14 0.09 0.08 0.08 0.08 0.10 0.13 0.17 0.22 0.28 0.27 0.26 0.27 0.28 0.29 0.30 0.36
0.17 0.19 0.28 0.28 0.17 0.10 0.08 0.07 0.07 0.10 0.15 0.18 0.22 0.24 0.26 0.27 0.21 0.16 0.13 0.10 0.08 0.08 0.09 0.10 0.10 0.14 0.16 0.12 0.07 0.07 0.07 0.07 0.09 0.12 0.18 0.22 0.26 0.28 0.28 0.26 0.27 0.29 0.34 0.48
0.14 0.15 0.19 0.18 0.12 0.12 0.10 0.09 0.10 0.12 0.11 0.10 0.11 0.15 0.23 0.28 0.22 0.14 0.11 0.11 0.12 0.13 0.12 0.13 0.13 0.15 0.14 0.10 0.07 0.07 0.09 0.10 0.12 0.13 0.17 0.23 0.27 0.29 0.30 0.28 0.28 0.32 0.36 0.58
0.09 0.09 0.12 0.12 0.09 0.11 0.10 0.08 0.11 0.14 0.12 0.12 0.14 0.15 0.15 0.19 0.18 0.14 0.14 0.15 0.16 0.18 0.20 0.19 0.16 0.12 0.11 0.10 0.08 0.08 0.10 0.14 0.16 0.17 0.19 0.24 0.29 0.31 0.31 0.30 0.31 0.32 0.36 0.46